Location: Beneden-Haastrecht
(52.0012°N, 4.7557°E)
Time: 02:05:03
(UTC+00:00)

ATLAS 5 CENTAUR R/B - Pass Details

Date: 24 October 2020
Orbit: 531 x 1127 km, 63.4° (Epoch: 22 November)

Event Time Altitude Azimuth Distance (km) Brightness Sun altitude
Rises 17:58:59 0° 262° (W) 2,791 6.8 -14.7°
Reaches altitude 10° 18:01:17 10° 273° (W) 1,955 5.5 -15.1°
Maximum altitude 18:05:15 32° 337° (NNW) 1,147 3.1 -15.7°
Enters shadow 18:09:25 12° 38° (NE) 2,127 3.9 -16.3°
